View from above orbital plane
|
View from above satellite
|
Ground track
|
The orbit data is extracted from the following two-line orbital elements,
1 19039U 88029B 21063.13491900 .00000058 00000-0 27355-4 0 9997
2 19039 74.0493 322.2063 0023481 161.6329 198.5679 14.38502852725811
Epoch (UTC): | 04 March 2021 03:14:17 |
Eccentricity: | 0.0023481 |
inclination: | 74.0493° |
perigee height: | 746 km |
apogee height: | 780 km |
right ascension of ascending node: | 322.2063° |
argument of perigee: | 161.6329° |
revolutions per day: | 14.38502852 |
mean anomaly at epoch: | 198.5679° |
orbit number at epoch: | 72581 |
The dashed part of the orbit path shows where the satellite is in the earth's shadow,
|
|